This demonstration page uses our WeatherBlox Daily Observations layout. Learn more.

Left ArrowRight Arrow

Hourly Observations for July 13, 2016

Temp ( °F °C ) Dew Point ( °F °C ) Humidity (%) Winds ( mph kmh ) Pressure ( in mb ) Visibility ( mi km ) Precip ( " mm )
12:58 am 00:58 Clear 74 23.2 72 22.2 94 94 SSE 7 11 29.85 1011 10 16 0.00 0.00
1:58 am 01:58 Clear 73 22.7 72 22.4 98 98 SE 8 13 29.83 1010 10 16 0.00 0.00
2:58 am 02:58 Clear 72 22.3 72 22.3 100 100 SE 6 9 29.83 1010 10 16 0.00 0.00
3:58 am 03:58 Clear 72 22.1 72 22.1 100 100 SE 6 9 29.81 1010 10 16 0.00 0.00
4:58 am 04:58 Clear 71 21.6 71 21.6 100 100 ESE 6 9 29.79 1009 10 16 0.00 0.00
5:58 am 05:58 Clear 70 21.1 70 21.1 100 100 SE 3 6 29.79 1009 7 11 0.00 0.03
6:58 am 06:58 Sunny 73 22.5 73 22.5 100 100 S 5 7 29.80 1009 10 16 0.00 0.03
7:58 am 07:58 Sunny 73 23 73 22.9 99 99 SSE 8 13 29.80 1009 10 16 0.00 0.00
8:28 am 08:28 Mostly Sunny 73 23 73 23 100 100 SSE 8 13 29.77 1008 10 16 0.00 0.00
8:58 am 08:58 Mostly Sunny 74 23.5 74 23.1 98 98 SE 7 11 29.83 1010 10 16 0.00 0.00
9:58 am 09:58 Sunny 75 24 74 23.1 95 95 SW 1 2 29.84 1010 10 16 0.00 0.00
10:58 am 10:58 Mostly Sunny 75 24 74 23.5 97 97 SE 10 17 29.84 1010 10 16 0.00 0.00
11:58 am 11:58 Mostly Sunny 78 25.8 74 23.3 86 86 SSE 6 9 29.83 1010 10 16 0.00 0.00
12:58 pm 12:58 Partly Cloudy 81 27.4 73 22.6 75 75 VRB 1 2 29.84 1010 10 16 0.00 0.00
1:58 pm 13:58 Sunny 85 29.3 73 22.8 68 68 SSE 7 11 29.83 1010 10 16 0.00 0.00
2:58 pm 14:58 Sunny 87 30.7 73 22.5 62 62 SW 9 15 29.80 1009 10 16 0.00 0.00
3:39 pm 15:39 Mostly Cloudy with Thunderstorms 88 31 73 23 62 62 SW 7 11 29.74 1007 10 16 0.00 0.00
3:46 pm 15:46 Mostly Cloudy with Thunderstorms 88 31 73 23 62 62 N 16 26 29.77 1008 10 16 0.00 0.00
3:54 pm 15:54 Cloudy with Thunderstorms 84 29 72 22 66 66 N 10 17 29.80 1009 10 16 0.00 0.00
3:58 pm 15:58 Cloudy with Thunderstorms 83 28.2 70 21.3 66 66 VRB 7 11 29.85 1011 10 16 0.00 0.00
4:03 pm 16:03 Cloudy with Thunderstorms 79 26 70 21 74 74 N 8 13 29.80 1009 6 10 0.00 0.00
4:32 pm 16:32 Mostly Cloudy with Thunderstorms 77 25 68 20 74 74 ESE 5 7 29.80 1009 10 16 0.00 0.00
4:47 pm 16:47 Partly Cloudy 79 26 72 22 79 79 N 9 15 29.80 1009 10 16 0.00 0.00
4:58 pm 16:58 Partly Cloudy 81 27.1 73 22.6 76 76 N 8 13 29.85 1011 10 16 0.12 3.05
5:58 pm 17:58 Sunny 84 28.8 70 21.2 64 64 N 5 7 29.84 1010 10 16 0.00 0.00
6:58 pm 18:58 Sunny 84 29.1 71 21.9 65 65 WNW 7 11 29.84 1011 10 16 0.00 0.00
7:58 pm 19:58 Sunny 82 27.9 67 19.6 61 61 VRB 6 9 29.88 1012 10 16 0.00 0.00
8:58 pm 20:58 Clear 78 25.7 67 19.4 68 68 NNW 5 7 29.89 1012 10 16 0.00 0.03
9:58 pm 21:58 Clear 71 21.4 67 19.7 90 90 NNW 3 6 29.92 1013 10 16 0.00 0.03
10:58 pm 22:58 Clear 69 20.6 67 19.6 94 94 Calm 29.94 1014 10 16 0.00 0.00
11:58 pm 23:58 Clear 68 19.9 68 19.9 100 100 ESE 3 6 29.94 1014 10 16 0.00 0.00

Powered by AerisWeather